Date String (YYYY-MM-DD hh:mm:ss) UTC,Instrument flags,Ambient pressure (hPa),Sample flow (lpm),Bypass flow (lpm),Sample temperature (°C),Ambient temperature (°C),ASC tube jacket temperature (°C),LED temperature (°C),Box temperature (°C),Sample RH (%),Span deviation,Mass concentration (μg/m³),Mass concentration (μg/m³),Mass concentration (μg/m³)
DateTimeUTC,F1_M11,P_M11,Q1_M11,Q2_M11,T1_M11,T2_M11,T3_M11,T4_M11,T5_M11,U1_M11,ZSPAN_M11,X2_M11,X0_M11,X1_M11
2021-12-17 08:00:00,,0819.0,5.00,0.00,21.8,21.3,00.0,30.9,23.4,10.5,0000.0,0000.44,0000.71,0000.35
2021-12-17 08:01:00,,0819.0,5.00,0.00,21.7,21.2,00.0,30.9,23.3,10.6,0000.0,0000.43,0000.63,0000.35
2021-12-17 08:02:00,,0819.0,4.99,0.00,21.7,21.0,00.0,30.8,23.3,10.6,0000.0,0000.44,0000.66,0000.35
2021-12-17 08:03:00,,0819.0,5.00,0.00,21.7,21.0,00.0,30.8,23.2,10.6,0000.0,0000.43,0000.66,0000.35
2021-12-17 08:04:00,,0819.0,5.01,0.00,21.6,20.9,00.0,30.8,23.2,10.6,0000.0,0000.46,0000.71,0000.36
2021-12-17 08:05:00,,0819.0,4.99,0.00,21.6,20.9,00.0,30.8,23.2,10.6,0000.0,0000.47,0000.73,0000.36
2021-12-17 08:06:00,,0819.0,5.00,0.00,21.6,20.8,00.0,30.8,23.2,10.6,0000.0,0000.48,0000.73,0000.37
2021-12-17 08:07:00,,0819.1,5.00,0.00,21.6,20.8,00.0,30.8,23.1,10.6,0000.0,0000.48,0000.75,0000.37
2021-12-17 08:08:00,,0819.1,5.01,0.00,21.5,20.7,00.0,30.7,23.1,10.6,0000.0,0000.51,0000.84,0000.37
2021-12-17 08:09:00,,0819.1,5.00,0.00,21.5,20.8,00.0,30.7,23.1,10.6,0000.0,0000.52,0000.82,0000.38
2021-12-17 08:10:00,,0819.2,4.99,0.00,21.6,21.5,00.0,30.7,23.4,10.6,0000.0,0000.53,0000.83,0000.39
2021-12-17 08:11:00,,0819.1,5.00,0.00,21.8,22.4,00.0,30.8,23.7,10.5,0000.0,0000.53,0000.83,0000.39
2021-12-17 08:12:00,,0819.2,5.00,0.00,21.9,22.8,00.0,30.8,23.9,10.4,0000.0,0000.52,0000.80,0000.39
2021-12-17 08:13:00,,0819.2,5.00,0.00,21.9,22.5,00.0,30.8,23.8,10.4,0000.0,0000.52,0000.89,0000.39
2021-12-17 08:14:00,,0819.2,5.00,0.00,21.9,22.2,00.0,30.9,23.7,10.4,0000.0,0000.54,0000.96,0000.41
2021-12-17 08:15:00,,0819.3,5.01,0.00,21.9,21.9,00.0,30.9,23.6,10.5,0000.0,0000.52,0000.92,0000.41
2021-12-17 08:16:00,,0819.3,5.01,0.00,21.8,21.7,00.0,30.9,23.5,10.5,0000.0,0000.53,0001.06,0000.41
2021-12-17 08:17:00,,0819.3,4.99,0.00,21.8,21.5,00.0,30.9,23.4,10.5,0000.0,0000.53,0001.08,0000.41
2021-12-17 08:18:00,,0819.3,5.01,0.00,21.7,21.4,00.0,30.8,23.3,10.5,0000.0,0000.53,0001.08,0000.41
2021-12-17 08:19:00,,0819.3,5.00,0.00,21.7,21.2,00.0,30.8,23.3,10.5,0000.0,0000.52,0001.04,0000.42
2021-12-17 08:20:00,,0819.4,4.99,0.00,21.7,21.1,00.0,30.8,23.2,10.6,0000.0,0000.50,0001.06,0000.41
2021-12-17 08:21:00,,0819.3,5.00,0.00,21.6,21.0,00.0,30.8,23.2,10.5,0000.0,0000.49,0001.05,0000.41
2021-12-17 08:22:00,,0819.3,5.00,0.00,21.6,20.9,00.0,30.8,23.1,10.5,0000.0,0000.52,0001.15,0000.41
2021-12-17 08:23:00,,0819.3,5.02,0.00,21.6,20.8,00.0,30.8,23.1,10.6,0000.0,0000.54,0001.19,0000.42
2021-12-17 08:24:00,,0819.3,4.98,0.00,21.5,20.7,00.0,30.7,23.0,10.6,0000.0,0000.53,0001.09,0000.42
2021-12-17 08:25:00,,0819.3,5.02,0.00,21.5,20.6,00.0,30.7,23.0,10.6,0000.0,0000.54,0001.09,0000.41
2021-12-17 08:26:00,,0819.3,4.99,0.00,21.4,20.7,00.0,30.7,23.0,10.6,0000.0,0000.55,0001.17,0000.41
2021-12-17 08:27:00,,0819.2,4.99,0.00,21.5,21.4,00.0,30.7,23.2,10.6,0000.0,0000.53,0001.02,0000.41
2021-12-17 08:28:00,,0819.3,5.00,0.00,21.7,22.4,00.0,30.7,23.6,10.5,0000.0,0000.53,0000.99,0000.42
2021-12-17 08:29:00,,0819.2,5.00,0.00,21.8,22.8,00.0,30.8,23.9,10.4,0000.0,0000.54,0000.99,0000.42
2021-12-17 08:30:00,,0819.2,5.00,0.00,21.9,22.6,00.0,30.8,23.8,10.4,0000.0,0000.54,0000.95,0000.42
2021-12-17 08:31:00,,0819.2,5.00,0.00,21.9,22.3,00.0,30.8,23.8,10.3,0000.0,0000.56,0000.93,0000.43
2021-12-17 08:32:00,,0819.2,5.01,0.00,21.9,22.1,00.0,30.8,23.7,10.3,0000.0,0000.57,0000.94,0000.43
2021-12-17 08:33:00,,0819.3,4.99,0.00,21.9,21.9,00.0,30.9,23.7,10.3,0000.0,0000.58,0000.93,0000.43
2021-12-17 08:34:00,,0819.2,5.01,0.00,21.9,21.8,00.0,30.9,23.7,10.3,0000.0,0000.56,0000.95,0000.42
2021-12-17 08:35:00,,0819.3,5.00,0.00,21.9,21.7,00.0,30.9,23.6,10.3,0000.0,0000.56,0001.04,0000.42
2021-12-17 08:36:00,,0819.2,5.00,0.00,21.9,21.6,00.0,30.9,23.6,10.3,0000.0,0000.55,0000.96,0000.43
2021-12-17 08:37:00,,0819.2,4.99,0.00,21.9,21.5,00.0,30.9,23.6,10.3,0000.0,0000.55,0000.91,0000.44
2021-12-17 08:38:00,,0819.3,5.01,0.00,21.9,21.4,00.0,30.9,23.6,10.3,0000.0,0000.57,0000.96,0000.44
2021-12-17 08:39:00,,0819.2,5.00,0.00,21.9,21.4,00.0,30.9,23.6,10.3,0000.0,0000.58,0000.99,0000.44
2021-12-17 08:40:00,,0819.2,4.99,0.00,21.9,21.3,00.0,30.9,23.6,10.3,0000.0,0000.58,0001.84,0000.43
2021-12-17 08:41:00,,0819.2,5.00,0.00,21.9,21.3,00.0,30.9,23.6,10.3,0000.0,0000.58,0002.24,0000.43
2021-12-17 08:42:00,,0819.3,5.01,0.00,21.9,21.3,00.0,30.9,23.6,10.3,0000.0,0000.57,0002.23,0000.43
2021-12-17 08:43:00,,0819.3,5.00,0.00,21.9,21.3,00.0,30.9,23.6,10.3,0000.0,0000.56,0002.19,0000.43
2021-12-17 08:44:00,,0819.4,5.00,0.00,21.9,21.2,00.0,30.9,23.5,10.3,0000.0,0000.53,0002.15,0000.43
2021-12-17 08:45:00,,0819.4,4.99,0.00,21.9,21.2,00.0,30.9,23.5,10.3,0000.0,0000.53,0002.13,0000.42
2021-12-17 08:46:00,,0819.4,4.99,0.00,21.9,21.2,00.0,30.9,23.5,10.3,0000.0,0000.54,0001.99,0000.43
2021-12-17 08:47:00,,0819.4,5.01,0.00,21.8,21.1,00.0,30.9,23.5,10.3,0000.0,0000.54,0002.03,0000.42
2021-12-17 08:48:00,,0819.4,4.99,0.00,21.8,21.1,00.0,30.9,23.5,10.3,0000.0,0000.53,0003.01,0000.42
2021-12-17 08:49:00,,0819.4,5.00,0.00,21.8,21.1,00.0,30.9,23.4,10.3,0000.0,0000.51,0002.99,0000.41
2021-12-17 08:50:00,,0819.4,4.99,0.00,21.8,21.1,00.0,30.9,23.4,10.3,0000.0,0000.50,0002.97,0000.41
2021-12-17 08:51:00,,0819.4,5.01,0.00,21.8,21.4,00.0,30.9,23.5,10.3,0000.0,0000.48,0002.69,0000.41
2021-12-17 08:52:00,,0819.4,4.99,0.00,21.9,22.2,00.0,30.9,23.8,10.2,0000.0,0000.49,0001.70,0000.41
2021-12-17 08:53:00,,0819.5,5.00,0.00,22.1,22.9,00.0,31.0,24.1,10.1,0000.0,0000.48,0001.70,0000.41
2021-12-17 08:54:00,,0819.5,5.01,0.00,22.2,23.0,00.0,31.0,24.2,10.1,0000.0,0000.48,0001.70,0000.41
2021-12-17 08:55:00,,0819.5,4.99,0.00,22.2,22.7,00.0,31.0,24.1,10.0,0000.0,0000.49,0001.71,0000.41
2021-12-17 08:56:00,,0819.6,5.00,0.00,22.2,22.5,00.0,31.1,24.1,10.0,0000.0,0000.48,0001.72,0000.41
2021-12-17 08:57:00,,0819.5,4.99,0.00,22.2,22.3,00.0,31.1,24.0,10.0,0000.0,0000.47,0001.70,0000.41
2021-12-17 08:58:00,,0819.5,5.01,0.00,22.2,22.1,00.0,31.1,24.0,10.0,0000.0,0000.46,0001.66,0000.40
2021-12-17 08:59:00,,0819.5,5.01,0.00,22.2,22.0,00.0,31.1,23.9,10.1,0000.0,0000.47,0000.74,0000.41
